[[{"header":{"parameterUnit":"m.s-1","parameterCategory":1,"la1":30.2991,"la2":30.254,"lo1":-89.0895,"lo2":-89.0444,"dy":0.0017,"dx":0.0017,"nx":28,"ny":28,"refTime":"2025-06-13T21:00:00:Z","depth":0,"parameterNumber":2,"parameterNumberName":"U-component_of_WINDS"},"data":[0,0,0,0,0,0,0,0,0,0,0,0,0,0,0,0,0,0,0,0,0,0,0,0,0,0,0,0,0,0,0,0,0,0,0,0,0,0,0,0,0,0,0,0,0,0,0,0,0,0,0,0,0,0,0,0,0,0,0.3421,0.3423,0,0.3577,0.3579,0.3581,0.3678,0.3678,0.3679,0.3679,0.3843,0.3846,0.385,0,0,0,0,0,0,0,0,0,0,0,0,0,0.321,0.3213,0.3421,0.3423,0.3425,0.3577,0.3579,0.3581,0.3678,0.3678,0.3679,0.368,0.3841,0.3846,0.3851,0,0,0,0,0,0,0,0,0,0,0,0,0,0.3327,0.3214,0.3421,0.3491,0.3499,0.3577,0.3579,0.3582,0.3678,0.3678,0.3679,0.368,0.384,0.3846,0.3851,0.3872,0,0,0.3869,0.3872,0,0,0,0,0,0,0,0,0.332,0.3335,0.3479,0.3487,0.3495,0.3609,0.3565,0.3679,0.3677,0.361,0.3679,0.368,0.3764,0.3777,0.3804,0.3879,0.3886,0.387,0.3873,0.3876,0.3877,0,0,0,0,0,0,0,0.3312,0.3329,0.3483,0.3481,0.3491,0.3516,0.3534,0.3587,0.3681,0.3616,0.3623,0.364,0.3769,0.3798,0.3809,0.3889,0.3869,0.3875,0.3878,0.388,0.399,0.3989,0,0,0,0,0,0,0.3292,0.3321,0.3478,0.3488,0.3408,0.3519,0.3539,0.3572,0.3681,0.3698,0.3639,0.3644,0.3788,0.3802,0.3815,0.3847,0.3875,0.3881,0.3884,0.399,0.3989,0.3989,0,0,0,0,0,0,0.3287,0.3305,0.3472,0.3407,0.343,0.3522,0.3558,0.3574,0.3604,0.3699,0.3716,0.3652,0.3789,0.3807,0.3857,0.3854,0.3884,0.3889,0.3991,0.399,0.3989,0.391,0,0,0,0,0,0,0.3281,0.3303,0.3311,0.3406,0.3433,0.351,0.3558,0.3577,0.3613,0.3621,0.3715,0.3731,0.3791,0.3848,0.3863,0.3862,0.3893,0.3992,0.399,0.3989,0.3913,0.3906,0.3901,0,0,0,0,0,0.3273,0.3283,0.3311,0.3329,0.3444,0.3509,0.3525,0.3593,0.3612,0.3622,0.3683,0.3728,0.3851,0.3852,0.387,0.3871,0.3992,0.3991,0.3989,0.3916,0.3908,0.3901,0,0,0,0,0,0,0.3186,0.3297,0.3329,0.337,0.3429,0.3525,0.3539,0.3582,0.3638,0.3643,0.3726,0.3746,0.3788,0.3835,0.3833,0.3897,0.3927,0.3929,0.3865,0.3858,0.3852,0.384,0.3898,0,0,0,0,0,0.3171,0.3214,0.3309,0.3336,0.3364,0.3446,0.3477,0.3524,0.359,0.3616,0.3681,0.3743,0.3797,0.383,0.3884,0.392,0.3943,0.393,0.3923,0.3918,0.3919,0.3943,0.3938,0.3984,0.3984,0.3984,0,0,0.3142,0.3208,0.323,0.332,0.3372,0.3415,0.3467,0.351,0.3544,0.3623,0.3674,0.3723,0.3799,0.3842,0.3865,0.3883,0.3911,0.3916,0.3911,0.3916,0.3941,0.3936,0.3932,0.3984,0.3984,0.3984,0,0,0.3111,0.3165,0.3193,0.3244,0.3321,0.3376,0.3382,0.3473,0.3508,0.356,0.3621,0.3662,0.3752,0.3803,0.3841,0.3829,0.3874,0.3844,0.3812,0.3834,0.383,0.3828,0.3824,0.3822,0.3845,0.3845,0.3845,0,0.3066,0.3132,0.3203,0.3243,0.3281,0.3353,0.3384,0.343,0.3521,0.3546,0.3564,0.3678,0.3734,0.3791,0.3788,0.3816,0.3827,0.3835,0.3825,0.3823,0.3821,0.3819,0.3818,0.3841,0.3841,0.3842,0.3842,0,0.3073,0.3118,0.3132,0.3217,0.3257,0.3292,0.3369,0.3401,0.3444,0.3497,0.355,0.3619,0.3689,0.3706,0.3749,0.3769,0.3778,0.3809,0.3841,0.3812,0.3811,0.3811,0.3835,0.3837,0.3838,0.3839,0,0,0.2992,0.3116,0.312,0.316,0.325,0.3287,0.3326,0.3393,0.3419,0.3479,0.3514,0.3588,0.3618,0.3661,0.371,0.3729,0.3716,0.3759,0.3762,0.3749,0.3744,0.372,0.3718,0.3746,0.3746,0.3746,0.3738,0,0.2976,0.3047,0.3112,0.3161,0.3204,0.3273,0.3307,0.3367,0.3417,0.3462,0.3518,0.3569,0.3604,0.3631,0.3652,0.3713,0.3717,0.3715,0.3781,0.3782,0.376,0.3718,0.3693,0.3682,0.3738,0.3738,0.3738,0,0.2966,0.3022,0.3075,0.3161,0.3182,0.3211,0.3278,0.332,0.3389,0.3425,0.3472,0.3524,0.3569,0.3595,0.3659,0.3656,0.3686,0.372,0.3722,0.3732,0.3759,0.3727,0.368,0.3679,0.3738,0.3738,0.3738,0,0.2903,0.2992,0.3036,0.3068,0.3169,0.3188,0.3232,0.3302,0.3338,0.3396,0.3421,0.3484,0.3519,0.3567,0.3635,0.3648,0.3692,0.3724,0.3724,0.3722,0.3731,0.373,0.3689,0.3749,0.3749,0.3749,0.3749,0,0.2878,0.2908,0.3009,0.3036,0.3071,0.3146,0.3179,0.3229,0.329,0.3329,0.3393,0.3427,0.3514,0.356,0.3613,0.3659,0.3674,0.3705,0.3719,0.37,0.3696,0.3722,0.3725,0.3749,0.3749,0.3749,0.3749,0,0.2814,0.2883,0.2935,0.3027,0.3051,0.3073,0.3152,0.3181,0.3235,0.3282,0.3298,0.3383,0.3439,0.3512,0.3592,0.3628,0.3667,0.3688,0.3644,0.3652,0.3648,0.3648,0.3624,0.3625,0.3682,0.3681,0.3681,0,0.2795,0.2819,0.2913,0.2943,0.2984,0.3031,0.3069,0.3143,0.3179,0.326,0.3279,0.3341,0.3394,0.3482,0.3551,0.3613,0.3636,0.3624,0.3646,0.3626,0.3638,0.3635,0.3639,0.3618,0.3617,0.3616,0.3616,0,0.2752,0.2785,0.2836,0.2898,0.294,0.2993,0.3049,0.307,0.3156,0.3194,0.3252,0.3293,0.3374,0.3435,0.3506,0.3552,0.3598,0.3608,0.3611,0.3593,0.3566,0.3581,0.3629,0.3608,0.3609,0.361,0.361,0.361,0.2711,0.2736,0.2806,0.2861,0.291,0.2961,0.2993,0.305,0.31,0.3171,0.3212,0.3269,0.3339,0.3438,0.3482,0.3529,0.3546,0.3551,0.3553,0.3553,0.3547,0.3557,0.3542,0.3542,0.3542,0.3543,0.3543,0,0.2673,0.2721,0.277,0.2846,0.2889,0.2928,0.2992,0.3025,0.3074,0.3135,0.3186,0.3253,0.3312,0.3385,0.345,0.3473,0.3496,0.3487,0.3487,0.3497,0.3527,0.3518,0.3468,0.3468,0.3468,0.3468,0.3468,0.3468,0.2658,0.2703,0.2744,0.2814,0.2863,0.2919,0.2952,0.3,0.3048,0.312,0.3169,0.3216,0.3282,0.3352,0.3408,0.3428,0.345,0.3435,0.3461,0.3488,0.3495,0.3501,0.3493,0.3438,0.3438,0.3428,0.3427,0.3427]},{"header":{"parameterUnit":"m.s-1","parameterCategory":1,"la1":30.2991,"la2":30.254,"lo1":-89.0895,"lo2":-89.0444,"dy":0.0017,"dx":0.0017,"nx":28,"ny":28,"refTime":"2025-06-13T21:00:00:Z","depth":0,"parameterNumber":3,"parameterNumberName":"V-component_of_WINDS"},"data":[0,0,0,0,0,0,0,0,0,0,0,0,0,0,0,0,0,0,0,0,0,0,0,0,0,0,0,0,0,0,0,0,0,0,0,0,0,0,0,0,0,0,0,0,0,0,0,0,0,0,0,0,0,0,0,0,0,0,3.8232,3.8231,0,3.82,3.8199,3.8199,3.8182,3.8182,3.8182,3.8182,3.8145,3.8144,3.8143,0,0,0,0,0,0,0,0,0,0,0,0,0,3.8274,3.8274,3.8232,3.8231,3.8231,3.82,3.8199,3.8199,3.8182,3.8182,3.8182,3.8182,3.8146,3.8144,3.8143,0,0,0,0,0,0,0,0,0,0,0,0,0,3.825,3.8273,3.8232,3.8219,3.8217,3.82,3.8199,3.8199,3.8182,3.8182,3.8182,3.8182,3.8146,3.8144,3.8143,3.8134,0,0,3.8139,3.8138,0,0,0,0,0,0,0,0,3.8252,3.8249,3.8221,3.822,3.8218,3.8195,3.8201,3.8177,3.8182,3.8195,3.8182,3.8182,3.8161,3.8159,3.8153,3.8133,3.8131,3.8138,3.8138,3.8137,3.8137,0,0,0,0,0,0,0,3.8253,3.825,3.8219,3.8221,3.8219,3.8214,3.821,3.8196,3.8179,3.8194,3.8193,3.819,3.8161,3.8154,3.8152,3.813,3.8138,3.8137,3.8136,3.8136,3.8102,3.8102,0,0,0,0,0,0,3.8258,3.8252,3.822,3.8218,3.8235,3.8213,3.8209,3.8202,3.8179,3.8175,3.819,3.8189,3.8157,3.8153,3.815,3.8139,3.8137,3.8136,3.8135,3.8102,3.8102,3.8102,0,0,0,0,0,0,3.8259,3.8255,3.8221,3.8234,3.823,3.8212,3.8205,3.8202,3.8195,3.8176,3.8172,3.8187,3.8156,3.8152,3.8139,3.8137,3.8135,3.8134,3.8102,3.8102,3.8102,3.8116,0,0,0,0,0,0,3.826,3.8256,3.8253,3.8235,3.8229,3.8211,3.8205,3.8201,3.8193,3.8192,3.8172,3.8168,3.8156,3.8141,3.8137,3.8135,3.8132,3.8102,3.8102,3.8102,3.8115,3.8116,3.8117,0,0,0,0,0,3.8262,3.8257,3.8253,3.8249,3.8226,3.8211,3.8208,3.8196,3.8193,3.819,3.8177,3.8169,3.8138,3.814,3.8135,3.8133,3.8102,3.8102,3.8102,3.8115,3.8116,3.8117,0,0,0,0,0,0,3.8274,3.8254,3.825,3.8239,3.8227,3.8209,3.8204,3.8197,3.8184,3.8183,3.8167,3.8163,3.8151,3.814,3.8142,3.8123,3.8119,3.8118,3.8131,3.8131,3.8132,3.8135,3.8131,0,0,0,0,0,3.8276,3.8267,3.825,3.8242,3.8237,3.8222,3.8215,3.8207,3.8193,3.8187,3.8174,3.8159,3.8147,3.8138,3.8125,3.8114,3.8109,3.811,3.8111,3.8111,3.8111,3.8104,3.8104,3.8101,3.8101,3.8101,0,0,3.8279,3.8267,3.8263,3.8245,3.8235,3.8225,3.8217,3.8207,3.82,3.8185,3.8172,3.8162,3.8145,3.8132,3.8126,3.8123,3.811,3.8111,3.8112,3.8111,3.8103,3.8104,3.8104,3.8101,3.8101,3.8101,0,0,3.828,3.8271,3.8263,3.8254,3.8239,3.8229,3.8227,3.821,3.8203,3.819,3.8179,3.8169,3.8147,3.8135,3.8127,3.8124,3.8116,3.812,3.8124,3.8118,3.8118,3.8118,3.8117,3.8117,3.812,3.812,3.812,0,3.8285,3.8272,3.826,3.8251,3.8244,3.8232,3.8224,3.8214,3.8195,3.819,3.8188,3.8161,3.8148,3.8133,3.8133,3.8126,3.8123,3.8122,3.8119,3.8119,3.8119,3.8117,3.8117,3.812,3.812,3.812,3.812,0,3.8279,3.827,3.8266,3.825,3.8241,3.8233,3.8219,3.8212,3.8204,3.8194,3.8181,3.8166,3.815,3.8145,3.8137,3.8129,3.8128,3.8122,3.8118,3.812,3.8118,3.8118,3.8121,3.8121,3.8121,3.8121,0,0,3.8287,3.8265,3.8264,3.8256,3.824,3.8231,3.8222,3.8208,3.8202,3.8189,3.8181,3.8163,3.8158,3.8148,3.8139,3.8133,3.8132,3.8128,3.8127,3.8129,3.8122,3.8126,3.8125,3.8126,3.8126,3.8126,3.8123,0,3.8285,3.827,3.8259,3.8247,3.8238,3.8227,3.8219,3.8207,3.8197,3.8187,3.8176,3.8164,3.8158,3.8152,3.8146,3.8133,3.813,3.8133,3.8117,3.8117,3.8122,3.8125,3.8129,3.8127,3.8122,3.8122,3.8122,0,3.8281,3.8271,3.8258,3.8243,3.8239,3.8232,3.8218,3.8209,3.8195,3.8188,3.8178,3.8168,3.8157,3.8154,3.8137,3.814,3.8133,3.8125,3.8125,3.8123,3.8119,3.8122,3.8126,3.8125,3.8121,3.8121,3.8121,0,3.8288,3.8271,3.8261,3.8255,3.8237,3.8232,3.8224,3.821,3.8203,3.819,3.8185,3.8171,3.8163,3.8152,3.8138,3.8137,3.8123,3.8119,3.8116,3.8117,3.8114,3.8114,3.8116,3.8109,3.8109,3.8109,3.8109,0,3.8287,3.828,3.8264,3.8258,3.825,3.8237,3.8229,3.8219,3.8207,3.8198,3.8187,3.8179,3.8162,3.8151,3.814,3.8128,3.8125,3.8118,3.8115,3.8119,3.812,3.8114,3.8114,3.8109,3.8109,3.8109,3.8109,0,3.8293,3.8282,3.8271,3.8255,3.8251,3.8246,3.8231,3.8225,3.8215,3.8204,3.82,3.8184,3.8171,3.8157,3.8138,3.8131,3.812,3.8116,3.8125,3.8123,3.8122,3.8122,3.812,3.8119,3.8113,3.8113,3.8113,0,3.8294,3.8288,3.8272,3.8266,3.8259,3.825,3.8242,3.823,3.8222,3.8206,3.8201,3.8188,3.8176,3.8156,3.8141,3.8127,3.8122,3.8123,3.812,3.8124,3.8122,3.8123,3.8122,3.8123,3.8123,3.8123,3.8124,0,3.8295,3.829,3.8281,3.827,3.8262,3.8252,3.8241,3.8237,3.8222,3.8214,3.8201,3.8193,3.8175,3.8161,3.8145,3.8135,3.8127,3.8125,3.8123,3.8127,3.8133,3.813,3.8127,3.8125,3.8124,3.8124,3.8124,3.8124,3.8298,3.8293,3.8282,3.8271,3.8263,3.8253,3.8246,3.8236,3.8226,3.8212,3.8204,3.8192,3.8178,3.8156,3.8146,3.8135,3.8133,3.8131,3.813,3.813,3.8131,3.8135,3.8132,3.8132,3.8132,3.8132,3.8132,0,3.83,3.8292,3.8283,3.8269,3.8261,3.8256,3.8244,3.8237,3.8227,3.8215,3.8204,3.819,3.8177,3.8162,3.8148,3.8142,3.8137,3.8138,3.8138,3.8136,3.8134,3.8137,3.8142,3.8142,3.8142,3.8142,3.8142,3.8142,3.8299,3.829,3.8284,3.827,3.8262,3.8251,3.8245,3.8236,3.8226,3.8211,3.8201,3.8192,3.8179,3.8164,3.8151,3.8147,3.8142,3.8144,3.8139,3.8137,3.8136,3.8136,3.8138,3.8143,3.8143,3.8142,3.8142,3.8142]}]]